Location: Pitton
(51.0667°N, 1.7000°W)
Time: 19:07:40
(UTC+00:00)

Cosmos 2219 Rocket - Pass Details

Date: 17 September 2019
Orbit: 829 x 845 km, 71.0° (Epoch: 16 October)

Event Time Altitude Azimuth Distance (km) Brightness Sun altitude
Rises 18:48:56 0° 330° (NNW) 3,384 6.0 -5.8°
Reaches altitude 10° 18:51:23 10° 332° (NNW) 2,447 5.2 -6.1°
Maximum altitude 18:57:00 74° 58° (ENE) 868 2.2 -7.0°
Drops below altitude 10° 19:02:35 10° 144° (SE) 2,437 4.2 -7.9°
Enters shadow 19:04:56 - 146° (SE) 3,333 4.9 -8.2°
